Tracking 29892 objects as of 21-Nov-2024
HD Live streaming from Space Station
objects crossing your sky now

FENGYUN 1C DEB

Track FENGYUN 1C DEB now!
10-day predictions


NORAD ID: 31300
Int'l Code: 1999-025BPJ
Perigee: 812.8 km
Apogee: 904.2 km
Inclination: 99.6 °
Period: 102.0 minutes
Semi major axis: 7229 km
RCS: 0.0134 m2 (small)
Launch date: May 10, 1999
Source: People's Republic of China (PRC)
Launch site: Taiyaun Space Center, China (TSC)

Note: This is SATELLITE DEBRIS
Your satellite tracking list
Your tracking list is empty




NASA's NSSDC Master Catalog

Two Line Element Set (TLE):
1 31300U 99025BPJ 24325.99422635  .00003670  00000-0  19799-2 0  9991
2 31300  99.5672  13.0060 0063232  54.4351  63.6814 14.12354470908067
Source of the keplerian elements: AFSPC